EW8698 Weather Reports


Display with metric or nautical units.
time (UTC)temp
F
wind
direction
speed
MPH
gust
MPH
rain 1hr
in
rain 24hr
in
rain mn
in
humidity
%
barometer
mb
20181219110704 33 272 3.0 3.0 0.00 0.00 0.00 94 1020.8
20181219110204 33 229 2.0 3.0 0.00 0.00 0.00 94 1020.8
20181219105704 33 229 2.0 3.0 0.00 0.00 0.00 94 1020.8
20181219105204 33 224 1.0 2.0 0.00 0.00 0.00 94 1020.8
20181219104704 33 238 1.0 2.0 0.00 0.00 0.00 93 1020.8
20181219104204 33 65 0.0 3.0 0.00 0.00 0.00 94 1020.7
20181219103705 33 42 1.0 3.0 0.00 0.00 0.00 93 1020.7
20181219103205 33 51 2.0 4.0 0.00 0.00 0.00 92 1020.7
20181219102704 33 32 0.0 4.0 0.00 0.00 0.00 92 1020.9
20181219102204 33 240 1.0 4.0 0.00 0.00 0.00 93 1020.9
20181219101704 33 231 2.0 4.0 0.00 0.00 0.00 93 1020.9
20181219101204 34 232 2.0 3.0 0.00 0.00 0.00 92 1020.9
20181219100705 34 254 3.0 3.0 0.00 0.00 0.00 92 1020.9
20181219100204 33 266 2.0 2.0 0.00 0.00 0.00 92 1020.9
20181219095704 33 292 1.0 2.0 0.00 0.00 0.00 91 1020.8
20181219095204 33 285 1.0 1.0 0.00 0.00 0.00 91 1020.8
20181219094704 32 289 1.0 1.0 0.00 0.00 0.00 90 1020.7
20181219094204 32 185 0.0 1.0 0.00 0.00 0.00 90 1020.7
20181219093704 32 356 0.0 1.0 0.00 0.00 0.00 90 1020.8
20181219093204 32 10 1.0 1.0 0.00 0.00 0.00 89 1020.8
20181219092704 32 225 0.0 1.0 0.00 0.00 0.00 89 1020.9
20181219092204 33 147 0.0 1.0 0.00 0.00 0.00 87 1021.0
20181219091704 32 87 0.0 1.0 0.00 0.00 0.00 88 1021.0
20181219091204 32 160 0.0 1.0 0.00 0.00 0.00 87 1021.0
20181219090704 31 203 0.0 2.0 0.00 0.00 0.00 88 1021.2
20181219090204 31 185 1.0 2.0 0.00 0.00 0.00 87 1021.3
20181219085704 31 221 0.0 2.0 0.00 0.00 0.00 87 1021.2
20181219085205 31 142 1.0 2.0 0.00 0.00 0.00 88 1021.3
20181219084705 32 158 1.0 2.0 0.00 0.00 0.00 88 1021.3
20181219084205 31 172 1.0 2.0 0.00 0.00 0.00 88 1021.4
20181219083704 32 158 2.0 2.0 0.00 0.00 0.00 90 1021.3
20181219083204 32 194 2.0 2.0 0.00 0.00 0.00 90 1021.4
20181219082704 32 236 0.0 2.0 0.00 0.00 0.00 89 1021.3
20181219082204 33 153 1.0 3.0 0.00 0.00 0.00 88 1021.3
20181219081704 33 169 1.0 3.0 0.00 0.00 0.00 88 1021.3
20181219081206 33 243 1.0 4.0 0.00 0.00 0.00 87 1021.4
20181219080704 34 234 2.0 4.0 0.00 0.00 0.00 88 1021.5
20181219080204 34 255 2.0 5.0 0.00 0.00 0.00 87 1021.5
20181219075704 35 254 3.0 5.0 0.00 0.00 0.00 86 1021.6
20181219075205 35 268 2.0 5.0 0.00 0.00 0.00 86 1021.7
20181219074704 35 266 4.0 5.0 0.00 0.00 0.00 86 1021.7
20181219074204 34 260 2.0 5.0 0.00 0.00 0.00 85 1021.6
20181219073704 34 262 4.0 5.0 0.00 0.00 0.00 84 1021.6
20181219073205 33 271 2.0 3.0 0.00 0.00 0.00 87 1021.6
20181219072704 33 247 2.0 3.0 0.00 0.00 0.00 87 1021.5
20181219072204 33 234 2.0 3.0 0.00 0.00 0.00 85 1021.5
20181219071704 33 244 2.0 2.0 0.00 0.00 0.00 86 1021.4
20181219071204 33 209 1.0 1.0 0.00 0.00 0.00 83 1021.4
20181219070704 34 258 1.0 1.0 0.00 0.00 0.00 83 1021.4
20181219070204 33 284 1.0 1.0 0.00 0.00 0.00 84 1021.4
20181219065704 33 162 1.0 2.0 0.00 0.00 0.00 84 1021.4
20181219065205 33 302 0.0 2.0 0.00 0.00 0.00 84 1021.5
20181219064704 33 113 0.0 2.0 0.00 0.00 0.00 82 1021.4
20181219064204 33 72 1.0 2.0 0.00 0.00 0.00 83 1021.4
20181219063704 33 98 2.0 2.0 0.00 0.00 0.00 81 1021.5
20181219063204 33 112 2.0 2.0 0.00 0.00 0.00 81 1021.6
20181219062704 34 85 1.0 2.0 0.00 0.00 0.00 79 1021.6
20181219062204 34 7 0.0 2.0 0.00 0.00 0.00 79 1021.7
20181219061704 33 161 1.0 3.0 0.00 0.00 0.00 81 1021.8
20181219061204 34 231 1.0 3.0 0.00 0.00 0.00 81 1021.8
20181219060704 34 240 1.0 3.0 0.00 0.00 0.00 83 1021.8
20181219060204 34 216 1.0 3.0 0.00 0.00 0.00 85 1021.9
20181219055704 34 232 2.0 4.0 0.00 0.00 0.00 84 1022.0
20181219055205 35 195 2.0 4.0 0.00 0.00 0.00 83 1021.9
20181219054704 35 251 2.0 4.0 0.00 0.00 0.00 81 1021.9
20181219054204 34 230 1.0 4.0 0.00 0.00 0.00 85 1021.9
20181219053704 35 242 2.0 3.0 0.00 0.00 0.00 84 1021.9
20181219053205 35 241 1.0 2.0 0.00 0.00 0.00 82 1021.9
20181219052704 35 233 2.0 2.0 0.00 0.00 0.00 84 1021.9
20181219052204 35 230 1.0 2.0 0.00 0.00 0.00 82 1021.8
20181219051705 35 239 1.0 1.0 0.00 0.00 0.00 81 1021.8
20181219051204 35 202 1.0 1.0 0.00 0.00 0.00 78 1021.8
20181219050705 36 221 1.0 1.0 0.00 0.00 0.00 75 1021.9
20181219050204 36 260 0.0 2.0 0.00 0.00 0.00 74 1021.9
20181219045704 36 147 1.0 2.0 0.00 0.00 0.00 75 1021.9
20181219045205 35 175 0.0 3.0 0.00 0.00 0.00 76 1021.9
20181219044705 36 203 0.0 3.0 0.00 0.00 0.00 75 1021.9
20181219044205 36 121 0.0 3.0 0.00 0.00 0.00 73 1021.8
20181219043704 37 127 2.0 3.0 0.00 0.00 0.00 73 1021.8
20181219043205 37 156 1.0 2.0 0.00 0.00 0.00 72 1021.7
20181219042705 37 285 1.0 4.0 0.00 0.00 0.00 74 1021.6
20181219042204 37 191 1.0 5.0 0.00 0.00 0.00 73 1021.6
20181219041704 38 257 2.0 6.0 0.00 0.00 0.00 75 1021.6
20181219041205 38 240 2.0 6.0 0.00 0.00 0.00 75 1021.7
20181219040704 39 259 3.0 6.0 0.00 0.00 0.00 78 1021.7
20181219040204 39 256 4.0 6.0 0.00 0.00 0.00 74 1021.6
20181219035704 39 257 4.0 6.0 0.00 0.00 0.00 71 1021.7
20181219035205 38 275 5.0 6.0 0.00 0.00 0.00 73 1021.6
20181219034705 38 282 2.0 4.0 0.00 0.00 0.00 75 1021.5
20181219034204 39 281 3.0 4.0 0.00 0.00 0.00 70 1021.5
20181219033704 39 257 3.0 4.0 0.00 0.00 0.00 73 1021.6
20181219033205 38 262 3.0 4.0 0.00 0.00 0.00 74 1021.6
20181219032704 38 262 2.0 5.0 0.00 0.00 0.00 77 1021.6
20181219032204 39 259 4.0 5.0 0.00 0.00 0.00 73 1021.5
20181219031704 39 251 3.0 7.0 0.00 0.00 0.00 78 1021.4
20181219031204 39 250 4.0 7.0 0.00 0.00 0.00 79 1021.4
20181219030704 39 267 4.0 7.0 0.00 0.00 0.00 75 1021.3
20181219030205 39 263 5.0 5.0 0.00 0.00 0.00 77 1021.3
20181219025704 39 259 3.0 5.0 0.00 0.00 0.00 77 1021.3
20181219025204 38 273 2.0 4.0 0.00 0.00 0.00 79 1021.2
20181219024704 38 260 2.0 4.0 0.00 0.00 0.00 77 1021.2
20181219024205 38 348 1.0 4.0 0.00 0.00 0.00 79 1021.1
20181219023704 38 258 2.0 4.0 0.00 0.00 0.00 79 1021.2
20181219023204 38 238 2.0 4.0 0.00 0.00 0.00 78 1021.2
20181219022703 38 283 2.0 5.0 0.00 0.00 0.00 73 1020.9
20181219022204 39 311 2.0 5.0 0.00 0.00 0.00 73 1020.9
20181219021704 39 264 4.0 5.0 0.00 0.00 0.00 73 1020.9
20181219021204 38 272 3.0 4.0 0.00 0.00 0.00 75 1020.8
20181219020705 38 287 1.0 4.0 0.00 0.00 0.00 80 1020.6
20181219020204 38 258 2.0 4.0 0.00 0.00 0.00 78 1020.7
20181219015704 38 242 2.0 4.0 0.00 0.00 0.00 77 1020.7
20181219015205 38 243 2.0 3.0 0.00 0.00 0.00 78 1020.5
20181219014704 38 278 1.0 3.0 0.00 0.00 0.00 78 1020.5
20181219014205 38 231 2.0 3.0 0.00 0.00 0.00 77 1020.5
20181219013703 38 226 2.0 3.0 0.00 0.00 0.00 77 1020.3
20181219013204 38 241 2.0 2.0 0.00 0.00 0.00 70 1020.2
20181219012704 39 312 1.0 1.0 0.00 0.00 0.00 69 1020.2
20181219012204 38 218 1.0 2.0 0.00 0.00 0.00 68 1020.2
20181219011704 38 203 1.0 2.0 0.00 0.00 0.00 65 1020.3
20181219011205 39 271 0.0 2.0 0.00 0.00 0.00 61 1020.3
20181219010704 39 265 1.0 1.0 0.00 0.00 0.00 64 1020.4
20181219010205 40 320 1.0 1.0 0.00 0.00 0.00 63 1020.4
20181219005704 40 359 1.0 1.0 0.00 0.00 0.00 60 1020.4
20181219005204 40 142 0.0 1.0 0.00 0.00 0.00 58 1020.4
20181219004704 39 230 1.0 1.0 0.00 0.00 0.00 62 1020.4
20181219004204 40 273 1.0 1.0 0.00 0.00 0.00 63 1020.3
20181219003704 40 349 1.0 2.0 0.00 0.00 0.00 55 1020.3
20181219003205 40 354 1.0 2.0 0.00 0.00 0.00 62 1020.3
20181219002704 41 236 0.0 2.0 0.00 0.00 0.00 57 1020.4
20181219002204 41 311 0.0 1.0 0.00 0.00 0.00 63 1020.3
20181219001704 41 48 1.0 1.0 0.00 0.00 0.00 54 1020.3
20181219001204 41 110 1.0 1.0 0.00 0.00 0.00 46 1020.3
20181219000705 40 130 1.0 2.0 0.00 0.00 0.00 49 1020.3
20181219000204 42 15 1.0 2.0 0.00 0.00 0.00 45 1020.2
20181218235704 41 311 1.0 2.0 0.00 0.00 0.00 47 1020.3
20181218235204 41 11 0.0 2.0 0.00 0.00 0.00 47 1020.2
20181218234704 41 138 2.0 2.0 0.00 0.00 0.00 47 1020.3
20181218234204 42 229 1.0 1.0 0.00 0.00 0.00 47 1020.3
20181218233704 42 226 0.0 1.0 0.00 0.00 0.00 44 1020.3
20181218233204 43 53 1.0 1.0 0.00 0.00 0.00 43 1020.2
20181218232704 42 183 1.0 2.0 0.00 0.00 0.00 52 1020.2
20181218232205 42 35 0.0 2.0 0.00 0.00 0.00 49 1020.2
20181218231704 42 219 1.0 3.0 0.00 0.00 0.00 54 1020.3
20181218231204 43 289 0.0 4.0 0.00 0.00 0.00 53 1020.2
20181218230705 43 286 1.0 4.0 0.00 0.00 0.00 54 1020.1
20181218230205 43 115 2.0 4.0 0.00 0.00 0.00 55 1020.2
20181218225704 44 117 4.0 4.0 0.00 0.00 0.00 52 1020.1
20181218225205 44 108 3.0 3.0 0.00 0.00 0.00 41 1020.1
20181218224704 44 111 1.0 4.0 0.00 0.00 0.00 44 1020.1
20181218224205 44 33 1.0 4.0 0.00 0.00 0.00 47 1020.0
20181218223704 45 112 1.0 4.0 0.00 0.00 0.00 44 1020.0
20181218223205 45 112 3.0 4.0 0.00 0.00 0.00 48 1020.1
20181218222705 45 108 3.0 4.0 0.00 0.00 0.00 57 1020.1
20181218222204 46 128 4.0 4.0 0.00 0.00 0.00 54 1020.1
20181218221704 46 88 3.0 4.0 0.00 0.00 0.00 45 1020.1
20181218221204 47 70 2.0 4.0 0.00 0.00 0.00 38 1020.1
20181218220705 46 73 2.0 3.0 0.00 0.00 0.00 36 1020.1
20181218220204 47 75 2.0 4.0 0.00 0.00 0.00 38 1020.2
20181218215704 47 65 2.0 4.0 0.00 0.00 0.00 41 1020.2
20181218215205 47 53 2.0 4.0 0.00 0.00 0.00 40 1020.1
20181218214704 48 64 3.0 4.0 0.00 0.00 0.00 40 1020.1
20181218214204 48 62 3.0 4.0 0.00 0.00 0.00 38 1020.1
20181218213704 48 90 2.0 4.0 0.00 0.00 0.00 37 1020.1
20181218213204 49 106 3.0 4.0 0.00 0.00 0.00 35 1020.0
20181218212705 49 93 3.0 4.0 0.00 0.00 0.00 35 1020.1
20181218212204 49 89 3.0 3.0 0.00 0.00 0.00 33 1020.1
20181218211704 49 62 3.0 3.0 0.00 0.00 0.00 30 1020.0
20181218211205 49 104 2.0 4.0 0.00 0.00 0.00 32 1019.9
20181218210704 49 97 2.0 6.0 0.00 0.00 0.00 34 1019.9
20181218210204 49 78 2.0 6.0 0.00 0.00 0.00 31 1019.9
20181218205704 49 68 4.0 6.0 0.00 0.00 0.00 31 1020.0
20181218205205 49 61 4.0 6.0 0.00 0.00 0.00 31 1020.0
20181218204704 49 104 4.0 6.0 0.00 0.00 0.00 34 1020.0
20181218204205 49 104 4.0 6.0 0.00 0.00 0.00 33 1020.0
20181218203704 49 128 4.0 5.0 0.00 0.00 0.00 33 1020.0
20181218203204 49 70 3.0 5.0 0.00 0.00 0.00 30 1020.0
20181218202704 49 27 3.0 4.0 0.00 0.00 0.00 29 1020.1
20181218202204 49 75 1.0 4.0 0.00 0.00 0.00 30 1020.1
20181218201704 49 63 2.0 4.0 0.00 0.00 0.00 30 1020.1
20181218201205 49 127 3.0 4.0 0.00 0.00 0.00 31 1020.1
20181218200704 49 107 2.0 4.0 0.00 0.00 0.00 32 1020.1
20181218200204 49 46 2.0 4.0 0.00 0.00 0.00 31 1020.1
20181218195704 49 104 3.0 4.0 0.00 0.00 0.00 33 1020.0
20181218195205 49 65 2.0 3.0 0.00 0.00 0.00 30 1020.0
20181218194705 49 295 1.0 3.0 0.00 0.00 0.00 32 1020.0
20181218194205 49 256 2.0 4.0 0.00 0.00 0.00 31 1020.0
20181218193705 49 284 1.0 4.0 0.00 0.00 0.00 30 1020.0
20181218193204 49 289 1.0 4.0 0.00 0.00 0.00 33 1020.0
20181218192704 48 257 3.0 5.0 0.00 0.00 0.00 34 1020.0
20181218192205 48 269 1.0 5.0 0.00 0.00 0.00 33 1019.9
20181218191704 48 261 2.0 5.0 0.00 0.00 0.00 34 1019.9
20181218191205 48 261 4.0 5.0 0.00 0.00 0.00 34 1019.9
20181218190705 48 272 3.0 4.0 0.00 0.00 0.00 34 1019.8
20181218190204 48 263 2.0 6.0 0.00 0.00 0.00 34 1019.8
20181218185704 47 257 3.0 7.0 0.00 0.00 0.00 35 1019.8
20181218185204 47 256 3.0 7.0 0.00 0.00 0.00 35 1019.8
20181218184704 48 273 3.0 7.0 0.00 0.00 0.00 35 1019.7
20181218184205 48 268 5.0 6.0 0.00 0.00 0.00 35 1019.7
20181218183704 48 269 4.0 5.0 0.00 0.00 0.00 36 1019.8
20181218183204 47 246 3.0 6.0 0.00 0.00 0.00 36 1019.9
20181218182704 47 276 3.0 6.0 0.00 0.00 0.00 37 1020.0
20181218182205 47 240 2.0 6.0 0.00 0.00 0.00 38 1020.0
20181218181704 47 255 3.0 5.0 0.00 0.00 0.00 40 1020.0
20181218181205 47 103 3.0 5.0 0.00 0.00 0.00 37 1020.0
20181218180704 47 133 2.0 5.0 0.00 0.00 0.00 37 1020.0
20181218180204 47 73 3.0 5.0 0.00 0.00 0.00 36 1020.0
20181218175704 47 226 3.0 5.0 0.00 0.00 0.00 38 1019.9
20181218175205 46 236 4.0 7.0 0.00 0.00 0.00 39 1020.0
20181218174704 46 278 3.0 7.0 0.00 0.00 0.00 37 1020.1
20181218174204 47 358 2.0 7.0 0.00 0.00 0.00 38 1020.1
20181218173704 47 304 4.0 6.0 0.00 0.00 0.00 36 1020.2
20181218173204 46 274 3.0 6.0 0.00 0.00 0.00 40 1020.3
20181218172704 46 68 1.0 6.0 0.00 0.00 0.00 36 1020.5
20181218172204 46 278 2.0 7.0 0.00 0.00 0.00 38 1020.5
20181218171705 47 63 3.0 7.0 0.00 0.00 0.00 37 1020.5
20181218171205 46 80 2.0 7.0 0.00 0.00 0.00 36 1020.5
20181218170705 46 38 3.0 7.0 0.00 0.00 0.00 36 1020.6
20181218170205 46 338 2.0 9.0 0.00 0.00 0.00 37 1020.5
20181218165705 46 294 3.0 9.0 0.00 0.00 0.00 38 1020.6
20181218165205 46 289 4.0 9.0 0.00 0.00 0.00 38 1020.7
20181218164704 46 290 5.0 7.0 0.00 0.00 0.00 39 1020.8
20181218164204 46 291 2.0 7.0 0.00 0.00 0.00 39 1020.9
20181218163704 46 322 2.0 9.0 0.00 0.00 0.00 39 1020.9
20181218163205 45 339 4.0 10.0 0.00 0.00 0.00 37 1020.9
20181218162705 45 289 4.0 10.0 0.00 0.00 0.00 39 1020.9
20181218162204 45 334 6.0 10.0 0.00 0.00 0.00 39 1020.9
20181218161705 45 356 4.0 9.0 0.00 0.00 0.00 41 1021.0
20181218161205 45 341 4.0 9.0 0.00 0.00 0.00 38 1021.1
20181218160704 45 333 2.0 7.0 0.00 0.00 0.00 41 1021.2
20181218160204 44 357 2.0 8.0 0.00 0.00 0.00 42 1021.4
20181218155704 44 285 2.0 8.0 0.00 0.00 0.00 44 1021.5
20181218155204 44 345 3.0 9.0 0.00 0.00 0.00 42 1021.5
20181218154704 43 295 3.0 9.0 0.00 0.00 0.00 45 1021.6
20181218154205 43 305 3.0 9.0 0.00 0.00 0.00 48 1021.5
20181218153703 43 288 6.0 9.0 0.00 0.00 0.00 46 1021.6
20181218153204 43 292 5.0 9.0 0.00 0.00 0.00 47 1021.5
20181218152704 43 320 5.0 8.0 0.00 0.00 0.00 46 1021.4
20181218152204 43 299 3.0 8.0 0.00 0.00 0.00 47 1021.6
20181218151705 43 298 5.0 9.0 0.00 0.00 0.00 48 1021.6
20181218151205 43 3 3.0 9.0 0.00 0.00 0.00 45 1021.5
20181218150704 43 352 4.0 10.0 0.00 0.00 0.00 45 1021.5
20181218150206 42 7 4.0 10.0 0.00 0.00 0.00 47 1021.5
20181218145705 42 349 4.0 10.0 0.00 0.00 0.00 46 1021.4
20181218145205 42 358 4.0 11.0 0.00 0.00 0.00 47 1021.4
20181218144705 42 283 4.0 11.0 0.00 0.00 0.00 49 1021.3
20181218144205 42 301 5.0 11.0 0.00 0.00 0.00 48 1021.2
20181218143705 42 292 5.0 9.0 0.00 0.00 0.00 50 1021.1
20181218143204 42 306 4.0 10.0 0.00 0.00 0.00 50 1021.0
20181218142704 42 337 3.0 10.0 0.00 0.00 0.00 50 1021.0
20181218142205 42 309 4.0 10.0 0.00 0.00 0.00 52 1021.0
20181218141705 41 285 6.0 14.0 0.00 0.00 0.00 54 1021.0
20181218141204 42 318 3.0 14.0 0.00 0.00 0.00 52 1020.9
20181218140704 41 303 5.0 14.0 0.00 0.00 0.00 52 1020.8
20181218140204 41 297 5.0 9.0 0.00 0.00 0.00 54 1020.7
20181218135705 41 300 5.0 9.0 0.00 0.00 0.00 55 1020.6
20181218135205 41 299 4.0 8.0 0.00 0.00 0.00 54 1020.6
20181218134705 41 312 4.0 8.0 0.00 0.00 0.00 54 1020.6
20181218134204 41 15 2.0 8.0 0.00 0.00 0.00 53 1020.5
20181218133704 40 334 4.0 7.0 0.00 0.00 0.00 53 1020.5
20181218133204 40 348 3.0 7.0 0.00 0.00 0.00 54 1020.4
20181218132704 40 279 2.0 7.0 0.00 0.00 0.00 58 1020.4
20181218132205 40 344 2.0 4.0 0.00 0.00 0.00 56 1020.4
20181218131704 40 276 2.0 7.0 0.00 0.00 0.00 57 1020.3
20181218131205 40 51 2.0 9.0 0.00 0.00 0.00 56 1020.3
20181218130704 39 319 2.0 10.0 0.00 0.00 0.00 61 1020.2
20181218130204 39 279 3.0 11.0 0.00 0.00 0.00 62 1020.0
20181218125704 40 294 5.0 13.0 0.00 0.00 0.00 58 1020.0
20181218125205 40 290 6.0 13.0 0.00 0.00 0.00 59 1019.9
20181218124704 40 284 8.0 13.0 0.00 0.00 0.00 59 1019.8
20181218124205 40 284 9.0 11.0 0.00 0.00 0.00 61 1019.8
20181218123705 40 287 8.0 10.0 0.00 0.00 0.00 60 1019.7
20181218123205 40 284 6.0 9.0 0.00 0.00 0.00 63 1019.6
20181218122705 40 290 5.0 10.0 0.00 0.00 0.00 62 1019.5
20181218122204 40 312 3.0 10.0 0.00 0.00 0.00 60 1019.5
20181218121705 40 331 2.0 10.0 0.00 0.00 0.00 60 1019.3
20181218121205 40 294 4.0 9.0 0.00 0.00 0.00 62 1019.2
20181218120704 40 298 6.0 9.0 0.00 0.00 0.00 55 1019.3
20181218120205 40 22 1.0 8.0 0.00 0.00 0.00 56 1019.2
20181218115704 40 318 3.0 8.0 0.00 0.00 0.00 57 1019.1
20181218115205 40 297 4.0 8.0 0.00 0.00 0.00 57 1019.0
20181218114706 40 10 3.0 8.0 0.00 0.00 0.00 55 1019.0
20181218114205 41 3 2.0 6.0 0.00 0.00 0.00 54 1019.1
20181218113704 40 336 3.0 6.0 0.00 0.00 0.00 55 1019.0
20181218113205 40 34 1.0 7.0 0.00 0.00 0.00 56 1018.9
20181218112704 40 343 2.0 7.0 0.00 0.00 0.00 57 1018.8
20181218112204 41 288 3.0 8.0 0.00 0.00 0.00 56 1018.8
20181218111705 40 292 3.0 8.0 0.00 0.00 0.00 56 1018.6
20181218111204 41 26 5.0 7.0 0.00 0.00 0.00 52 1018.5